BLY20CG CYYZ-EINN

Flight info

Callsign BLY20CG
Flight time N/A
Altitude 39000
Route VERDO7 IPTOS AGLUK CEFOU IBERG NATC VENER UNBEG UNBEG2E
Aircraft A320/M-V/N

Departure

Time N/A
Airport Toronto Pearson International Airport (CYYZ)

Arrival

Time 2026-05-08 18:34
Airport Shannon Airport (EINN)
Time Latitude Longitude Altitude Speed Heading
2026-05-08 15:10 50.01501 -47.86344 39022 ft 494 kts 71°
2026-05-08 15:10 50.02659 -47.81306 39033 ft 494 kts 71°
2026-05-08 15:11 50.04959 -47.71242 39042 ft 494 kts 71°
2026-05-08 15:11 50.07247 -47.61160 39036 ft 494 kts 71°
2026-05-08 15:12 50.09527 -47.51064 39037 ft 494 kts 71°
2026-05-08 15:12 50.11821 -47.40892 39055 ft 494 kts 71°
2026-05-08 15:13 50.14067 -47.30849 39049 ft 494 kts 71°
2026-05-08 15:13 50.16320 -47.20714 39042 ft 495 kts 70°
2026-05-08 15:14 50.18569 -47.10593 39048 ft 493 kts 70°
2026-05-08 15:14 50.20806 -47.00467 39074 ft 493 kts 70°
2026-05-08 15:15 50.23033 -46.90350 39077 ft 492 kts 70°
2026-05-08 15:15 50.25243 -46.80229 39081 ft 492 kts 70°
2026-05-08 15:16 50.27439 -46.70131 39082 ft 492 kts 70°
2026-05-08 15:16 50.29617 -46.60052 39083 ft 491 kts 71°
2026-05-08 15:17 50.31797 -46.49921 39093 ft 491 kts 71°
2026-05-08 15:17 50.33973 -46.39788 39100 ft 491 kts 71°
2026-05-08 15:18 50.36130 -46.29698 39115 ft 491 kts 70°
2026-05-08 15:18 50.38278 -46.19554 39109 ft 490 kts 70°
2026-05-08 15:19 50.40411 -46.09421 39119 ft 489 kts 70°
2026-05-08 15:19 50.42535 -45.99302 39136 ft 488 kts 70°
2026-05-08 15:20 50.44653 -45.89200 39144 ft 487 kts 70°
2026-05-08 15:20 50.46752 -45.79119 39149 ft 486 kts 70°
2026-05-08 15:21 50.48825 -45.69104 39154 ft 485 kts 70°
2026-05-08 15:21 50.50889 -45.59038 39157 ft 484 kts 70°
2026-05-08 15:22 50.52948 -45.48959 39161 ft 484 kts 70°
2026-05-08 15:22 50.55003 -45.38900 39168 ft 484 kts 70°
2026-05-08 15:23 50.57055 -45.28826 39165 ft 484 kts 70°
2026-05-08 15:23 50.59075 -45.18801 39176 ft 484 kts 70°
2026-05-08 15:24 50.60769 -45.10347 39178 ft 483 kts 70°
2026-05-08 15:24 50.62791 -45.00268 39175 ft 483 kts 70°
2026-05-08 15:25 50.64786 -44.90248 39192 ft 482 kts 70°
2026-05-08 15:25 50.66767 -44.80188 39209 ft 482 kts 70°
2026-05-08 15:26 50.68746 -44.70104 39204 ft 481 kts 70°
2026-05-08 15:26 50.70720 -44.60019 39208 ft 481 kts 70°
2026-05-08 15:27 50.72679 -44.50008 39215 ft 481 kts 69°
2026-05-08 15:27 50.74634 -44.39916 39212 ft 481 kts 70°
2026-05-08 15:28 50.76571 -44.29800 39231 ft 481 kts 70°
2026-05-08 15:28 50.78509 -44.19680 39228 ft 481 kts 70°
2026-05-08 15:29 50.80457 -44.09497 39242 ft 481 kts 70°
2026-05-08 15:29 50.82367 -43.99433 39247 ft 481 kts 70°
2026-05-08 15:30 50.84271 -43.89295 39258 ft 480 kts 69°
2026-05-08 15:30 50.86168 -43.79181 39260 ft 479 kts 69°
2026-05-08 15:31 50.88053 -43.69081 39270 ft 478 kts 69°
2026-05-08 15:31 50.89930 -43.58985 39269 ft 477 kts 69°
2026-05-08 15:32 50.91794 -43.48905 39276 ft 476 kts 69°
2026-05-08 15:32 50.93644 -43.38837 39282 ft 476 kts 69°
2026-05-08 15:33 50.95471 -43.28769 39286 ft 475 kts 69°
2026-05-08 15:33 50.97298 -43.18702 39283 ft 475 kts 69°
2026-05-08 15:34 50.99117 -43.08646 39292 ft 474 kts 69°
2026-05-08 15:34 51.00922 -42.98580 39298 ft 473 kts 69°
2026-05-08 15:35 51.02713 -42.88544 39301 ft 472 kts 69°
2026-05-08 15:35 51.04499 -42.78510 39302 ft 472 kts 69°
2026-05-08 15:36 51.06264 -42.68481 39303 ft 470 kts 69°
2026-05-08 15:36 51.08016 -42.58473 39325 ft 469 kts 69°
2026-05-08 15:37 51.09752 -42.48514 39315 ft 467 kts 68°
2026-05-08 15:37 51.11483 -42.38568 39319 ft 466 kts 69°
2026-05-08 15:38 51.13200 -42.28622 39319 ft 466 kts 69°
2026-05-08 15:38 51.14909 -42.18690 39322 ft 465 kts 69°
2026-05-08 15:39 51.16609 -42.08745 39325 ft 465 kts 69°
2026-05-08 15:39 51.18294 -41.98789 39326 ft 465 kts 69°
2026-05-08 15:40 51.19966 -41.88851 39325 ft 465 kts 69°
2026-05-08 15:40 51.21636 -41.78879 39325 ft 465 kts 69°
2026-05-08 15:41 51.23304 -41.68901 39326 ft 466 kts 69°
2026-05-08 15:41 51.24960 -41.58920 39344 ft 463 kts 69°
2026-05-08 15:42 51.26569 -41.49097 39313 ft 454 kts 69°
2026-05-08 15:42 51.28165 -41.39364 39318 ft 453 kts 69°
2026-05-08 15:43 51.29750 -41.29636 39318 ft 452 kts 69°
2026-05-08 15:43 51.31325 -41.19927 39324 ft 453 kts 69°
2026-05-08 15:44 51.32899 -41.10158 39354 ft 452 kts 69°
2026-05-08 15:44 51.34461 -41.00436 39360 ft 451 kts 69°
2026-05-08 15:45 51.36001 -40.90731 39360 ft 450 kts 69°
2026-05-08 15:45 51.37530 -40.81031 39360 ft 449 kts 69°
2026-05-08 15:46 51.39054 -40.71349 39360 ft 448 kts 69°
2026-05-08 15:46 51.40572 -40.61682 39391 ft 448 kts 69°
2026-05-08 15:47 51.42073 -40.52007 39382 ft 447 kts 69°
2026-05-08 15:47 51.43558 -40.42347 39384 ft 446 kts 69°
2026-05-08 15:48 51.45781 -40.27852 39376 ft 446 kts 69°
2026-05-08 15:49 51.47254 -40.18187 39376 ft 446 kts 69°
2026-05-08 15:49 51.48716 -40.08540 39385 ft 444 kts 69°
2026-05-08 15:50 51.50266 -39.98979 39389 ft 437 kts 62°
2026-05-08 15:50 51.52518 -39.89969 39387 ft 435 kts 60°
2026-05-08 15:51 51.54791 -39.80971 39390 ft 434 kts 60°
2026-05-08 15:51 51.57044 -39.72032 39388 ft 434 kts 60°
2026-05-08 15:52 51.59292 -39.63020 39407 ft 434 kts 60°
2026-05-08 15:52 51.61527 -39.53994 39404 ft 434 kts 60°
2026-05-08 15:53 51.63752 -39.44973 39407 ft 434 kts 60°
2026-05-08 15:53 51.65975 -39.35946 39403 ft 433 kts 60°
2026-05-08 15:54 51.68190 -39.26930 39401 ft 433 kts 60°
2026-05-08 15:54 51.70393 -39.17891 39419 ft 433 kts 60°
2026-05-08 15:55 51.72592 -39.08864 39416 ft 433 kts 60°
2026-05-08 15:55 51.75880 -38.95301 39416 ft 432 kts 60°
2026-05-08 15:56 51.78051 -38.86255 39416 ft 432 kts 60°
2026-05-08 15:56 51.80219 -38.77202 39449 ft 432 kts 60°
2026-05-08 15:57 51.82380 -38.68174 39442 ft 430 kts 60°
2026-05-08 15:57 51.84531 -38.59146 39436 ft 430 kts 60°
2026-05-08 15:58 51.86666 -38.50121 39433 ft 429 kts 60°
2026-05-08 15:58 51.88792 -38.41107 39438 ft 429 kts 60°
2026-05-08 15:59 51.90910 -38.32090 39457 ft 428 kts 60°
2026-05-08 15:59 51.93007 -38.23062 39450 ft 428 kts 60°
2026-05-08 16:00 51.95104 -38.14048 39444 ft 427 kts 60°
2026-05-08 16:00 51.97203 -38.05038 39444 ft 427 kts 60°
2026-05-08 16:01 51.99282 -37.96013 39446 ft 427 kts 60°
2026-05-08 16:01 52.01356 -37.86985 39476 ft 427 kts 60°
2026-05-08 16:02 52.03424 -37.77953 39471 ft 426 kts 60°
2026-05-08 16:02 52.05463 -37.68997 39464 ft 425 kts 60°
2026-05-08 16:03 52.07533 -37.59922 39455 ft 425 kts 60°
2026-05-08 16:03 52.09572 -37.50901 39463 ft 425 kts 60°
2026-05-08 16:04 52.11597 -37.41865 39462 ft 425 kts 60°
2026-05-08 16:04 52.13626 -37.32836 39464 ft 425 kts 60°
2026-05-08 16:05 52.15652 -37.23779 39468 ft 425 kts 60°
2026-05-08 16:05 52.17648 -37.14776 39470 ft 426 kts 60°
2026-05-08 16:06 52.19649 -37.05695 39467 ft 426 kts 60°
2026-05-08 16:06 52.21647 -36.96611 39497 ft 426 kts 60°
2026-05-08 16:07 52.23641 -36.87518 39485 ft 426 kts 60°
2026-05-08 16:07 52.25627 -36.78408 39485 ft 426 kts 60°
2026-05-08 16:08 52.27603 -36.69314 39494 ft 425 kts 59°
2026-05-08 16:08 52.29255 -36.61702 39493 ft 424 kts 59°
2026-05-08 16:09 52.31220 -36.52618 39516 ft 423 kts 60°
2026-05-08 16:09 52.33145 -36.43634 39484 ft 421 kts 60°
2026-05-08 16:10 52.35071 -36.34586 39488 ft 421 kts 60°
2026-05-08 16:10 52.37000 -36.25524 39495 ft 422 kts 60°
2026-05-08 16:11 52.38921 -36.16460 39496 ft 422 kts 60°
2026-05-08 16:11 52.40835 -36.07367 39529 ft 422 kts 60°
2026-05-08 16:12 52.42742 -35.98277 39495 ft 421 kts 60°
2026-05-08 16:12 52.44644 -35.89192 39492 ft 422 kts 60°
2026-05-08 16:13 52.46540 -35.80091 39505 ft 422 kts 60°
2026-05-08 16:13 52.48431 -35.70966 39504 ft 423 kts 60°
2026-05-08 16:14 52.50311 -35.61811 39510 ft 423 kts 60°
2026-05-08 16:14 52.52186 -35.52645 39519 ft 424 kts 60°
2026-05-08 16:15 52.54065 -35.43470 39517 ft 424 kts 60°
2026-05-08 16:15 52.55936 -35.34284 39510 ft 424 kts 60°
2026-05-08 16:16 52.57798 -35.25070 39515 ft 425 kts 60°
2026-05-08 16:16 52.59659 -35.15848 39514 ft 425 kts 60°
2026-05-08 16:17 52.61517 -35.06583 39514 ft 427 kts 61°
2026-05-08 16:17 52.63365 -34.97281 39505 ft 428 kts 61°
2026-05-08 16:18 52.65205 -34.87964 39503 ft 429 kts 61°
2026-05-08 16:18 52.67050 -34.78622 39502 ft 429 kts 61°
2026-05-08 16:19 52.68887 -34.69261 39504 ft 429 kts 61°
2026-05-08 16:19 52.70727 -34.59887 39507 ft 433 kts 61°
2026-05-08 16:20 52.72581 -34.50413 39497 ft 434 kts 62°
2026-05-08 16:20 52.74417 -34.40912 39499 ft 435 kts 62°
2026-05-08 16:21 52.76248 -34.31381 39499 ft 436 kts 62°
2026-05-08 16:21 52.78080 -34.21847 39503 ft 436 kts 62°
2026-05-08 16:22 52.79905 -34.12303 39522 ft 437 kts 63°
2026-05-08 16:22 52.81728 -34.02675 39504 ft 439 kts 63°
2026-05-08 16:23 52.83548 -33.93047 39505 ft 440 kts 63°
2026-05-08 16:23 52.85372 -33.83369 39509 ft 440 kts 63°
2026-05-08 16:24 52.87187 -33.73680 39522 ft 441 kts 63°
2026-05-08 16:24 52.88992 -33.63952 39536 ft 442 kts 64°
2026-05-08 16:25 52.90793 -33.54197 39534 ft 444 kts 64°
2026-05-08 16:25 52.92590 -33.44406 39532 ft 444 kts 64°
2026-05-08 16:26 52.94385 -33.34598 39532 ft 445 kts 64°
2026-05-08 16:26 52.96181 -33.24781 39532 ft 445 kts 64°
2026-05-08 16:27 52.97956 -33.14947 39540 ft 444 kts 65°
2026-05-08 16:27 52.99714 -33.05131 39534 ft 444 kts 65°
2026-05-08 16:28 53.01476 -32.95293 39535 ft 444 kts 65°
2026-05-08 16:28 53.03224 -32.85452 39535 ft 444 kts 65°
2026-05-08 16:29 53.04972 -32.75600 39533 ft 444 kts 65°
2026-05-08 16:29 53.06709 -32.65765 39534 ft 444 kts 65°
2026-05-08 16:30 53.08445 -32.55886 39532 ft 444 kts 65°
2026-05-08 16:30 53.10169 -32.46012 39540 ft 444 kts 65°
2026-05-08 16:31 53.11885 -32.36130 39535 ft 444 kts 65°
2026-05-08 16:31 53.13588 -32.26235 39534 ft 444 kts 66°
2026-05-08 16:32 53.15268 -32.16409 39541 ft 444 kts 66°
2026-05-08 16:32 53.16960 -32.06458 39542 ft 444 kts 66°
2026-05-08 16:33 53.18623 -31.96624 39543 ft 443 kts 66°
2026-05-08 16:33 53.20297 -31.86725 39539 ft 443 kts 66°
2026-05-08 16:34 53.21969 -31.76758 39543 ft 444 kts 66°
2026-05-08 16:34 53.23621 -31.66850 39550 ft 443 kts 66°
2026-05-08 16:35 53.25258 -31.56995 39539 ft 443 kts 66°
2026-05-08 16:35 53.26895 -31.47067 39538 ft 443 kts 67°
2026-05-08 16:36 53.28521 -31.37120 39536 ft 443 kts 67°
2026-05-08 16:36 53.30129 -31.27176 39536 ft 444 kts 67°
2026-05-08 16:37 53.31741 -31.17215 39553 ft 444 kts 67°
2026-05-08 16:37 53.33342 -31.07261 39544 ft 443 kts 67°
2026-05-08 16:38 53.34941 -30.97287 39541 ft 443 kts 67°
2026-05-08 16:38 53.36529 -30.87318 39538 ft 443 kts 67°
2026-05-08 16:39 53.38106 -30.77329 39534 ft 444 kts 68°
2026-05-08 16:39 53.39674 -30.67334 39552 ft 444 kts 68°
2026-05-08 16:40 53.41236 -30.57338 39543 ft 444 kts 68°
2026-05-08 16:40 53.42795 -30.47310 39539 ft 444 kts 68°
2026-05-08 16:41 53.44341 -30.37298 39532 ft 444 kts 68°
2026-05-08 16:42 53.46640 -30.22240 39530 ft 443 kts 68°
2026-05-08 16:42 53.48150 -30.12294 39509 ft 440 kts 69°
2026-05-08 16:43 53.49645 -30.02329 39510 ft 440 kts 69°
2026-05-08 16:43 53.51117 -29.92375 39512 ft 440 kts 69°
2026-05-08 16:44 53.52561 -29.82348 39513 ft 441 kts 69°
2026-05-08 16:44 53.53980 -29.72319 39542 ft 441 kts 69°
2026-05-08 16:45 53.55394 -29.62279 39533 ft 441 kts 69°
2026-05-08 16:45 53.56800 -29.52251 39527 ft 441 kts 69°
2026-05-08 16:46 53.58209 -29.42222 39516 ft 440 kts 69°
2026-05-08 16:46 53.59610 -29.32184 39521 ft 440 kts 70°
2026-05-08 16:47 53.60994 -29.22153 39537 ft 440 kts 70°
2026-05-08 16:47 53.62370 -29.12092 39529 ft 440 kts 70°
2026-05-08 16:48 53.63741 -29.02051 39526 ft 440 kts 70°
2026-05-08 16:48 53.65098 -28.91988 39518 ft 440 kts 70°
2026-05-08 16:49 53.66447 -28.81929 39515 ft 440 kts 70°
2026-05-08 16:49 53.67796 -28.71862 39545 ft 440 kts 70°
2026-05-08 16:50 53.69128 -28.61787 39522 ft 440 kts 70°
2026-05-08 16:50 53.70453 -28.51706 39510 ft 440 kts 70°
2026-05-08 16:51 53.71549 -28.43307 39510 ft 440 kts 70°
2026-05-08 16:51 53.72858 -28.33214 39501 ft 441 kts 70°
2026-05-08 16:52 53.74161 -28.23100 39499 ft 441 kts 70°
2026-05-08 16:52 53.75455 -28.12980 39516 ft 441 kts 71°
2026-05-08 16:53 53.77395 -27.97776 39518 ft 441 kts 71°
2026-05-08 16:53 53.78669 -27.87630 39510 ft 441 kts 71°
2026-05-08 16:54 53.79937 -27.77466 39500 ft 442 kts 71°
2026-05-08 16:54 53.81194 -27.67301 39499 ft 442 kts 71°
2026-05-08 16:55 53.82447 -27.57119 39492 ft 442 kts 71°
2026-05-08 16:55 53.83691 -27.46933 39491 ft 442 kts 71°
2026-05-08 16:56 53.84925 -27.36743 39489 ft 442 kts 71°
2026-05-08 16:56 53.86152 -27.26527 39489 ft 442 kts 71°
2026-05-08 16:57 53.87362 -27.16380 39513 ft 442 kts 72°
2026-05-08 16:57 53.88580 -27.06092 39503 ft 442 kts 72°
2026-05-08 16:58 53.89781 -26.95867 39494 ft 442 kts 72°
2026-05-08 16:58 53.90976 -26.85620 39493 ft 442 kts 72°
2026-05-08 16:59 53.92162 -26.75386 39492 ft 443 kts 72°
2026-05-08 16:59 53.93328 -26.65140 39483 ft 443 kts 72°
2026-05-08 17:00 53.94497 -26.54860 39499 ft 442 kts 72°
2026-05-08 17:00 53.95657 -26.44612 39487 ft 442 kts 72°
2026-05-08 17:01 53.96811 -26.34352 39484 ft 442 kts 72°
2026-05-08 17:01 53.97934 -26.24159 39479 ft 442 kts 73°
2026-05-08 17:02 53.99064 -26.13817 39475 ft 442 kts 73°
2026-05-08 17:02 54.00192 -26.03542 39487 ft 442 kts 73°
2026-05-08 17:03 54.01315 -25.93264 39480 ft 442 kts 73°
2026-05-08 17:03 54.02417 -25.82978 39489 ft 442 kts 74°
2026-05-08 17:04 54.03505 -25.72743 39478 ft 442 kts 74°
2026-05-08 17:04 54.04592 -25.62452 39472 ft 442 kts 74°
2026-05-08 17:05 54.05677 -25.52080 39488 ft 442 kts 75°
2026-05-08 17:05 54.06737 -25.41839 39473 ft 442 kts 75°
2026-05-08 17:06 54.07794 -25.31517 39464 ft 442 kts 75°
2026-05-08 17:06 54.08850 -25.21191 39463 ft 442 kts 75°
2026-05-08 17:07 54.09904 -25.10872 39467 ft 443 kts 75°
2026-05-08 17:07 54.10945 -25.00517 39478 ft 444 kts 75°
2026-05-08 17:08 54.11968 -24.90146 39466 ft 444 kts 75°
2026-05-08 17:08 54.12978 -24.79743 39459 ft 445 kts 76°
2026-05-08 17:09 54.13989 -24.69337 39455 ft 445 kts 76°
2026-05-08 17:09 54.14999 -24.58921 39452 ft 445 kts 76°
2026-05-08 17:10 54.15993 -24.48507 39463 ft 445 kts 76°
2026-05-08 17:10 54.16974 -24.38076 39449 ft 445 kts 76°
2026-05-08 17:11 54.17958 -24.27638 39450 ft 446 kts 76°
2026-05-08 17:11 54.18934 -24.17180 39438 ft 446 kts 76°
2026-05-08 17:12 54.19901 -24.06724 39445 ft 446 kts 76°
2026-05-08 17:12 54.20855 -23.96249 39462 ft 446 kts 77°
2026-05-08 17:13 54.21791 -23.85760 39455 ft 447 kts 77°
2026-05-08 17:13 54.22723 -23.75256 39442 ft 447 kts 77°
2026-05-08 17:14 54.23657 -23.64744 39435 ft 447 kts 77°
2026-05-08 17:14 54.24577 -23.54216 39435 ft 448 kts 77°
2026-05-08 17:15 54.25487 -23.43694 39456 ft 448 kts 77°
2026-05-08 17:15 54.26396 -23.33120 39442 ft 449 kts 77°
2026-05-08 17:16 54.27295 -23.22538 39431 ft 450 kts 78°
2026-05-08 17:16 54.28178 -23.11937 39425 ft 450 kts 78°
2026-05-08 17:17 54.29056 -23.01339 39421 ft 450 kts 78°
2026-05-08 17:17 54.29930 -22.90708 39431 ft 451 kts 78°
2026-05-08 17:18 54.30788 -22.80064 39425 ft 452 kts 78°
2026-05-08 17:18 54.31641 -22.69397 39421 ft 452 kts 78°
2026-05-08 17:19 54.32483 -22.58729 39421 ft 452 kts 78°
2026-05-08 17:19 54.33318 -22.48048 39411 ft 452 kts 78°
2026-05-08 17:20 54.34140 -22.37358 39410 ft 453 kts 79°
2026-05-08 17:20 54.34949 -22.26732 39412 ft 453 kts 79°
2026-05-08 17:21 54.35768 -22.15930 39406 ft 453 kts 79°
2026-05-08 17:21 54.36572 -22.05213 39411 ft 454 kts 79°
2026-05-08 17:22 54.37363 -21.94474 39412 ft 454 kts 79°
2026-05-08 17:22 54.38149 -21.83722 39424 ft 454 kts 79°
2026-05-08 17:23 54.38915 -21.73031 39411 ft 455 kts 79°
2026-05-08 17:23 54.39676 -21.62252 39403 ft 455 kts 79°
2026-05-08 17:24 54.40435 -21.51468 39403 ft 455 kts 79°
2026-05-08 17:24 54.41181 -21.40671 39400 ft 455 kts 80°
2026-05-08 17:25 54.41915 -21.29870 39414 ft 455 kts 80°
2026-05-08 17:25 54.42648 -21.19063 39407 ft 456 kts 80°
2026-05-08 17:26 54.43372 -21.08231 39395 ft 456 kts 80°
2026-05-08 17:26 54.44079 -20.97389 39391 ft 457 kts 81°
2026-05-08 17:27 54.44783 -20.86524 39391 ft 458 kts 81°
2026-05-08 17:27 54.45472 -20.75645 39400 ft 458 kts 81°
2026-05-08 17:28 54.46149 -20.64746 39392 ft 459 kts 81°
2026-05-08 17:28 54.46818 -20.53824 39385 ft 460 kts 81°
2026-05-08 17:29 54.47489 -20.42879 39387 ft 460 kts 81°
2026-05-08 17:29 54.48144 -20.31937 39381 ft 461 kts 81°
2026-05-08 17:30 54.48796 -20.20968 39395 ft 461 kts 81°
2026-05-08 17:30 54.49435 -20.09987 39388 ft 462 kts 82°
2026-05-08 17:31 54.50034 -19.98981 39385 ft 462 kts 83°
2026-05-08 17:31 54.50369 -19.87920 39379 ft 463 kts 86°
2026-05-08 17:32 54.50506 -19.76822 39378 ft 464 kts 86°
2026-05-08 17:32 54.50643 -19.65730 39388 ft 464 kts 86°
2026-05-08 17:33 54.50827 -19.54629 39379 ft 465 kts 86°
2026-05-08 17:33 54.51025 -19.43495 39370 ft 465 kts 86°
2026-05-08 17:34 54.51209 -19.32463 39369 ft 466 kts 86°
2026-05-08 17:34 54.51375 -19.21314 39367 ft 466 kts 86°
2026-05-08 17:35 54.51500 -19.12036 39367 ft 466 kts 86°
2026-05-08 17:35 54.51637 -19.00870 39368 ft 467 kts 86°
2026-05-08 17:36 54.51768 -18.89689 39364 ft 468 kts 86°
2026-05-08 17:36 54.51897 -18.78475 39359 ft 468 kts 87°
2026-05-08 17:37 54.52010 -18.67256 39358 ft 469 kts 87°
2026-05-08 17:37 54.52106 -18.56031 39358 ft 469 kts 87°
2026-05-08 17:38 54.52204 -18.44796 39360 ft 470 kts 87°
2026-05-08 17:38 54.52293 -18.33519 39355 ft 471 kts 87°
2026-05-08 17:39 54.52366 -18.22248 39352 ft 472 kts 87°
2026-05-08 17:39 54.52427 -18.10953 39352 ft 472 kts 87°
2026-05-08 17:40 54.52478 -17.99640 39349 ft 472 kts 87°
2026-05-08 17:40 54.52523 -17.88331 39348 ft 473 kts 88°
2026-05-08 17:41 54.52546 -17.77001 39337 ft 474 kts 89°
2026-05-08 17:41 54.52558 -17.65636 39338 ft 475 kts 89°
2026-05-08 17:42 54.52576 -17.54262 39344 ft 476 kts 88°
2026-05-08 17:42 54.52577 -17.42865 39348 ft 476 kts 89°
2026-05-08 17:43 54.52567 -17.31527 39331 ft 478 kts 89°
2026-05-08 17:43 54.52548 -17.20069 39329 ft 479 kts 89°
2026-05-08 17:44 54.52511 -17.08587 39332 ft 479 kts 89°
2026-05-08 17:44 54.52459 -16.97100 39329 ft 480 kts 89°
2026-05-08 17:45 54.52406 -16.85611 39326 ft 480 kts 89°
2026-05-08 17:45 54.52344 -16.74147 39331 ft 481 kts 89°
2026-05-08 17:46 54.52267 -16.62635 39328 ft 481 kts 90°
2026-05-08 17:46 54.52169 -16.51110 39331 ft 481 kts 90°
2026-05-08 17:47 54.52066 -16.39584 39333 ft 481 kts 90°
2026-05-08 17:47 54.51983 -16.30009 39334 ft 482 kts 90°
2026-05-08 17:48 54.51849 -16.16532 39329 ft 483 kts 90°
2026-05-08 17:48 54.51710 -16.04982 39324 ft 483 kts 90°
2026-05-08 17:49 54.51561 -15.93414 39318 ft 483 kts 90°
2026-05-08 17:49 54.51404 -15.81848 39317 ft 484 kts 91°
2026-05-08 17:50 54.51241 -15.70269 39325 ft 484 kts 91°
2026-05-08 17:50 54.51067 -15.58707 39312 ft 484 kts 92°
2026-05-08 17:51 54.50868 -15.47129 39314 ft 484 kts 92°
2026-05-08 17:51 54.50668 -15.35564 39314 ft 484 kts 92°
2026-05-08 17:52 54.50466 -15.24004 39307 ft 483 kts 92°
2026-05-08 17:53 54.50128 -15.06665 39299 ft 483 kts 95°
2026-05-08 17:53 54.48614 -14.95475 39301 ft 481 kts 114°
2026-05-08 17:54 54.45695 -14.85161 39306 ft 480 kts 118°
2026-05-08 17:54 54.42718 -14.74890 39302 ft 481 kts 118°
2026-05-08 17:55 54.39742 -14.64608 39303 ft 481 kts 118°
2026-05-08 17:55 54.36753 -14.54342 39289 ft 481 kts 118°
2026-05-08 17:56 54.33742 -14.44113 39299 ft 480 kts 119°
2026-05-08 17:56 54.30721 -14.33905 39297 ft 480 kts 119°
2026-05-08 17:57 54.27704 -14.23738 39291 ft 479 kts 119°
2026-05-08 17:57 54.24679 -14.13576 39286 ft 479 kts 119°
2026-05-08 17:58 54.21649 -14.03459 39286 ft 479 kts 119°
2026-05-08 17:58 54.18612 -13.93337 39278 ft 478 kts 119°
2026-05-08 17:59 54.15580 -13.83241 39274 ft 478 kts 120°
2026-05-08 17:59 54.12533 -13.73161 39278 ft 477 kts 120°
2026-05-08 18:00 54.09477 -13.63129 39272 ft 477 kts 120°
2026-05-08 18:00 54.04899 -13.48181 39269 ft 477 kts 120°
2026-05-08 18:01 54.01836 -13.38192 39264 ft 476 kts 120°
2026-05-08 18:01 53.98756 -13.28219 39250 ft 476 kts 120°
2026-05-08 18:02 53.96169 -13.19889 39254 ft 476 kts 121°
2026-05-08 18:02 53.92584 -13.08350 39254 ft 475 kts 121°
2026-05-08 18:03 53.89490 -12.98433 39257 ft 475 kts 121°
2026-05-08 18:03 53.86388 -12.88531 39259 ft 476 kts 121°
2026-05-08 18:04 53.83277 -12.78654 39251 ft 476 kts 121°
2026-05-08 18:04 53.80155 -12.68786 39241 ft 475 kts 121°
2026-05-08 18:05 53.77030 -12.58951 39234 ft 475 kts 121°
2026-05-08 18:05 53.73896 -12.49134 39239 ft 475 kts 121°
2026-05-08 18:06 53.70749 -12.39315 39244 ft 475 kts 122°
2026-05-08 18:06 53.67609 -12.29535 39232 ft 475 kts 122°
2026-05-08 18:07 53.64457 -12.19758 39234 ft 475 kts 122°
2026-05-08 18:07 53.61296 -12.10004 39219 ft 474 kts 122°
2026-05-08 18:08 53.58125 -12.00276 39228 ft 473 kts 122°
2026-05-08 18:08 53.54954 -11.90580 39222 ft 473 kts 122°
2026-05-08 18:09 53.51780 -11.80874 39217 ft 474 kts 122°
2026-05-08 18:09 53.48595 -11.71189 39219 ft 473 kts 122°
2026-05-08 18:10 53.45400 -11.61527 39209 ft 473 kts 122°
2026-05-08 18:10 53.42201 -11.51886 39193 ft 473 kts 123°
2026-05-08 18:11 53.38995 -11.42261 39203 ft 472 kts 123°
2026-05-08 18:11 53.35782 -11.32667 39196 ft 472 kts 123°
2026-05-08 18:12 53.32564 -11.23084 39202 ft 472 kts 123°
2026-05-08 18:12 53.29341 -11.13532 39189 ft 472 kts 123°
2026-05-08 18:13 53.26112 -11.03995 38931 ft 470 kts 123°
2026-05-08 18:13 53.24503 -10.99252 38603 ft 469 kts 123°
2026-05-08 18:13 53.22890 -10.94502 37647 ft 469 kts 124°
2026-05-08 18:14 53.21305 -10.89833 36804 ft 467 kts 125°
2026-05-08 18:14 53.19709 -10.85138 35859 ft 466 kts 126°
2026-05-08 18:14 53.18105 -10.80431 34805 ft 467 kts 127°
2026-05-08 18:14 53.16501 -10.75744 33671 ft 461 kts 128°
2026-05-08 18:15 53.14937 -10.71166 32525 ft 448 kts 127°
2026-05-08 18:15 53.13409 -10.66698 31325 ft 439 kts 127°
2026-05-08 18:15 53.11898 -10.62304 30175 ft 440 kts 127°
2026-05-08 18:15 53.10349 -10.57855 28834 ft 447 kts 126°
2026-05-08 18:16 53.08783 -10.53363 27553 ft 450 kts 126°
2026-05-08 18:16 53.07215 -10.48850 26304 ft 452 kts 125°
2026-05-08 18:16 53.05641 -10.44314 25115 ft 452 kts 124°
2026-05-08 18:16 53.04075 -10.39800 23979 ft 451 kts 124°
2026-05-08 18:17 53.02509 -10.35292 22695 ft 450 kts 123°
2026-05-08 18:17 53.00944 -10.30794 21406 ft 448 kts 123°
2026-05-08 18:17 52.99388 -10.26332 20183 ft 447 kts 122°
2026-05-08 18:17 52.97834 -10.21884 19016 ft 441 kts 123°
2026-05-08 18:18 52.96336 -10.17604 17823 ft 418 kts 122°
2026-05-08 18:18 52.94896 -10.13500 16647 ft 406 kts 122°
2026-05-08 18:18 52.93491 -10.09509 15545 ft 398 kts 123°
2026-05-08 18:18 52.92097 -10.05570 14559 ft 394 kts 123°
2026-05-08 18:19 52.90718 -10.01681 13727 ft 390 kts 122°
2026-05-08 18:19 52.89390 -9.97933 12925 ft 384 kts 122°
2026-05-08 18:19 52.88032 -9.94098 12141 ft 382 kts 122°
2026-05-08 18:19 52.86694 -9.90328 11409 ft 375 kts 121°
2026-05-08 18:20 52.85818 -9.87858 11277 ft 361 kts 121°
2026-05-08 18:20 52.84236 -9.83405 10936 ft 318 kts 121°
2026-05-08 18:20 52.83157 -9.80378 10541 ft 296 kts 121°
2026-05-08 18:20 52.82461 -9.78433 10357 ft 289 kts 121°
2026-05-08 18:21 52.81444 -9.75594 10105 ft 286 kts 121°
2026-05-08 18:21 52.80401 -9.72803 9946 ft 285 kts 125°
2026-05-08 18:21 52.79190 -9.70220 9816 ft 284 kts 128°
2026-05-08 18:21 52.77961 -9.67666 9687 ft 284 kts 128°
2026-05-08 18:22 52.76735 -9.65122 9546 ft 282 kts 128°
2026-05-08 18:22 52.75510 -9.62579 9411 ft 284 kts 128°
2026-05-08 18:22 52.74288 -9.60041 9280 ft 282 kts 128°
2026-05-08 18:22 52.73076 -9.57520 9140 ft 280 kts 128°
2026-05-08 18:23 52.71866 -9.55009 9021 ft 279 kts 128°
2026-05-08 18:23 52.70656 -9.52503 8659 ft 281 kts 128°
2026-05-08 18:23 52.69448 -9.50003 8079 ft 274 kts 128°
2026-05-08 18:23 52.68268 -9.47565 7372 ft 270 kts 128°
2026-05-08 18:24 52.67106 -9.45161 6736 ft 274 kts 128°
2026-05-08 18:24 52.65910 -9.42695 6284 ft 269 kts 128°
2026-05-08 18:24 52.64758 -9.40325 5657 ft 262 kts 127°
2026-05-08 18:24 52.63635 -9.38017 4883 ft 258 kts 127°
2026-05-08 18:25 52.62575 -9.35846 4769 ft 228 kts 125°
2026-05-08 18:25 52.61635 -9.33930 4716 ft 204 kts 125°
2026-05-08 18:25 52.60802 -9.32231 4704 ft 178 kts 124°
2026-05-08 18:25 52.60073 -9.30739 4649 ft 158 kts 124°
2026-05-08 18:26 52.59425 -9.29411 4595 ft 141 kts 124°
2026-05-08 18:26 52.58846 -9.28226 4558 ft 127 kts 124°
2026-05-08 18:26 52.58303 -9.27109 4490 ft 124 kts 123°
2026-05-08 18:26 52.57768 -9.26004 4448 ft 124 kts 124°
2026-05-08 18:27 52.57230 -9.24895 4396 ft 124 kts 122°
2026-05-08 18:27 52.56872 -9.24145 4358 ft 122 kts 119°
2026-05-08 18:27 52.56549 -9.22442 4289 ft 117 kts 87°
2026-05-08 18:27 52.56780 -9.21209 4161 ft 115 kts 49°
2026-05-08 18:28 52.57285 -9.20177 3987 ft 116 kts 62°
2026-05-08 18:28 52.57716 -9.19043 3832 ft 117 kts 55°
2026-05-08 18:28 52.58190 -9.17961 3674 ft 116 kts 52°
2026-05-08 18:28 52.58673 -9.16895 3526 ft 116 kts 52°
2026-05-08 18:29 52.59162 -9.15841 3362 ft 116 kts 52°
2026-05-08 18:29 52.59653 -9.14792 3206 ft 116 kts 51°
2026-05-08 18:29 52.60144 -9.13750 3035 ft 115 kts 52°
2026-05-08 18:29 52.60634 -9.12713 2877 ft 115 kts 51°
2026-05-08 18:30 52.61123 -9.11679 2732 ft 114 kts 51°
2026-05-08 18:30 52.61612 -9.10648 2574 ft 114 kts 51°
2026-05-08 18:30 52.62100 -9.09618 2417 ft 114 kts 51°
2026-05-08 18:30 52.62588 -9.08589 2259 ft 114 kts 51°
2026-05-08 18:31 52.63075 -9.07561 2105 ft 114 kts 51°
2026-05-08 18:31 52.63560 -9.06537 1938 ft 113 kts 50°
2026-05-08 18:31 52.64050 -9.05520 1788 ft 113 kts 50°
2026-05-08 18:31 52.64532 -9.04505 1633 ft 112 kts 51°
2026-05-08 18:32 52.65005 -9.03484 1479 ft 112 kts 51°
2026-05-08 18:32 52.65485 -9.02466 1342 ft 113 kts 50°
2026-05-08 18:32 52.65974 -9.01464 1164 ft 112 kts 50°
2026-05-08 18:32 52.66443 -9.00446 1025 ft 111 kts 51°
2026-05-08 18:33 52.66914 -8.99435 875 ft 111 kts 48°
2026-05-08 18:33 52.67399 -8.98417 699 ft 114 kts 49°
2026-05-08 18:33 52.67876 -8.97402 572 ft 112 kts 47°
2026-05-08 18:33 52.68346 -8.96392 375 ft 112 kts 46°
2026-05-08 18:34 52.68824 -8.95380 243 ft 112 kts 47°
2026-05-08 18:34 52.69305 -8.94368 69 ft 112 kts 47°
2026-05-08 18:34 52.69698 -8.93545 26 ft 52 kts 52°
2026-05-08 18:34 52.69881 -8.93154 26 ft 34 kts 53°
2026-05-08 18:35 52.69912 -8.92962 25 ft 15 kts 129°
2026-05-08 18:35 52.69838 -8.92845 22 ft 14 kts 135°
2026-05-08 18:35 52.69768 -8.92729 22 ft 15 kts 135°
2026-05-08 18:35 52.69695 -8.92612 22 ft 15 kts 136°
2026-05-08 18:36 52.69620 -8.92493 22 ft 15 kts 135°
2026-05-08 18:36 52.69545 -8.92367 22 ft 15 kts 130°
2026-05-08 18:36 52.69493 -8.92210 23 ft 16 kts 112°
2026-05-08 18:36 52.69469 -8.92086 23 ft 9 kts 110°
2026-05-08 18:37 52.69417 -8.92053 21 ft 9 kts 183°
2026-05-08 18:37 52.69388 -8.92061 21 ft 2 kts 190°
2026-05-08 18:37 52.69376 -8.92065 22 ft 2 kts 191°
2026-05-08 18:37 52.69369 -8.92067 22 ft 1 kts 191°
2026-05-08 18:38 52.69368 -8.92067 22 ft 0 kts 191°